Regional Weather Roundup
Issued by NWS

Home | Current Version | Previous Version | Graphics & Text | Print | Product List | Glossary On
Versions: 1 2 3 4 5 6 7 8 9 10 11 12 13 14 15 16 17 18 19 20 21 22 23 24 25 26 27 28 29 30 31 32 33 34 35 36 37 38 39 40 41 42 43 44 45 46 47 48 49 50
000
ASUS43 KLSX 180159
RWRMO

WEATHER SUMMARY FOR MISSOURI
NATIONAL WEATHER SERVICE SPRINGFIELD MO
800 PM CST WED DEC 17 2014

NOTE: "FAIR" INDICATES FEW OR NO CLOUDS BELOW 12,000 FEET WITH NO
       SIGNIFICANT WEATHER AND/OR OBSTRUCTIONS TO VISIBILITY.
       CURRENT SKY AND/OR WEATHER CONDITIONS ARE NOT AVAILABLE FOR
       CHILLICOTHE AND FARMINGTON.

MOZ001>031-035>038-043-044-053-054-180300-
...NORTHERN AND WESTERN MISSOURI...

CITY           SKY/WX    TMP DP  RH WIND       PRES   REMARKS
KANSAS CTY INT CLOUDY    30  22  72 SE8       30.26R WCI  22
KANSAS C DTWN  CLOUDY    31  22  69 E6        30.28R WCI  25
LEE`S SUMMIT   CLOUDY    30  22  72 E6        30.27R WCI  24
ST JOSEPH      CLOUDY    30  21  69 E7        30.27S WCI  23
CHILLICOTHE      N/A     30  21  69 NE3       30.29S
KIRKSVILLE     CLOUDY    25  22  88 CALM      30.29R

$$
MOZ066>068-077>081-088>096-101>105-180300-
...SOUTHWEST MISSOURI...

CITY           SKY/WX    TMP DP  RH WIND       PRES   REMARKS
SPRINGFIELD    RAIN      33  31  92 E7        30.23R FOG     WCI  27
JOPLIN         LGT RAIN  32  31  96 E7        30.22F FOG     WCI  26

$$
MOZ032>034-039>042-045>050-055>058-069>072-180300-
...CENTRAL MISSOURI...

CITY           SKY/WX    TMP DP  RH WIND       PRES   REMARKS
COLUMBIA       CLOUDY    32  26  78 E5        30.28R WCI  27
JEFFERSON CITY CLOUDY    35  23  61 NE3       30.29R
ROLLA          CLOUDY    34  24  67 NE3       30.24R
SEDALIA        CLOUDY    32  24  72 SE3       30.29R
WARRENSBURG    CLOUDY    30  23  74 NE3       30.27F
OSAGE BEACH    CLOUDY    34  21  60 CALM      30.27R

$$
MOZ051-052-059>065-180300-
...EAST CENTRAL MISSOURI...

CITY           SKY/WX    TMP DP  RH WIND       PRES   REMARKS
ST LOUIS INTL  MOCLDY    33  25  72 NE6       30.29S WCI  28
SPIRIT OF STL  CLOUDY   N/A N/A N/A NE5       30.28S
ST CHARLES     MOCLDY    30  24  78 NE3       30.30S

$$
MOZ072>076-082>087-097>100-106>115-180300-
...SOUTH CENTRAL AND SOUTHEAST MISSOURI...

CITY           SKY/WX    TMP DP  RH WIND       PRES   REMARKS
CAPE GIRARDEAU CLOUDY    37  31  78 CALM      30.27F
FARMINGTON     CLOUDY    36  28  75 N5        30.26S
POPLAR BLUFF   CLOUDY    38  29  70 CALM      30.25F
WEST PLAINS    LGT RAIN  35  31  85 CALM      30.24R

$$


USA.gov is the U.S. government's official web portal to all federal, state and local government web resources and services.